Location: Croissy-Beaubourg
(48.8283°N, 2.6696°E)
Time: 22:07:32
(UTC+00:00)

Cosmos 2082 - Pass Details

Date: 19 August 2022
Orbit: 832 x 856 km, 71.0° (Epoch: 28 September)

Event Time Altitude Azimuth Distance (km) Brightness Sun altitude
Rises 01:21:31 0° 335° (NNW) 3,407 7.4 -25.3°
Reaches altitude 10° 01:24:30 10° 350° (N) 2,473 6.8 -25.1°
Maximum altitude 01:28:57 23° 42° (NE) 1,737 6.0 -24.8°
Drops below altitude 10° 01:33:23 10° 94° (E) 2,477 6.4 -24.5°
Sets 01:36:22 0° 108° (ESE) 3,413 7.0 -24.3°
